Location: Antin
(43.3330°N, 0.2804°E)
Time: 18:50:30
(UTC+00:00)

SME Rocket - Pass Details

Date: 09 December 2023
Orbit: 550 x 2645 km, 99.9° (Epoch: 20 February)

Event Time Altitude Azimuth Distance (km) Brightness Sun altitude
Rises 19:48:39 0° 197° (SSW) 3,366 7.0 -36.5°
Reaches altitude 10° 19:50:52 10° 207° (SSW) 2,633 6.5 -36.9°
Maximum altitude 19:56:14 34° 271° (W) 1,880 5.8 -37.9°
Drops below altitude 10° 20:04:02 10° 333° (NNW) 3,893 7.4 -39.3°
Sets 20:08:04 0° 342° (NNW) 5,234 8.0 -40.0°
